STARLINK-4215, 53007

Orbit data source: Space-Track

STARLINK-4215, 53007 is a payload satellite owned by SpaceX/Seattle (US) in LEO that was launched on Thu, 07 Jul 2022 UTC via an FALCON 9 launch vehicle from the Air Force Eastern Test Range (AFETR). Payload-class satellites include a variety of spacecraft equipped with specific instruments for various scientific and technological missions. These include communications satellites like Starlink; space stations such as the ISS; scientific satellites like the Hubble; Earth observation satellites from companies like Planet Labs, Umbra, and HawkEye 360; GPS; miniature CubeSats for education and research; and military/defense satellites.

Loading next visibility...
Identifier
53007, 2022-076X
Orbit
LEO
Country
Flag of USUS
Related business
Manufacturer
SpaceX/Seattle
Mission
Operational Commercial Communications
Bus & Motor
STARLINK, Unknown motor
Mass
297 kg wet, ~275 kg dry
Launch date (UTC)
2022-07-07 (4 years ago)
Launch vehicle
FALCON 9
Launch site
Air Force Eastern Test Range (AFETR)
Object type
Payload
Rocket body
Debris
Shape & HBR
Box + 1 Pan, 10.1 m
Radar Cross Section
13.562 m², Large (>1 m²)

Expand to show TLE details & history
Last TLE update: 3 days ago

TLE from 3 days ago
0 STARLINK-4215
1 53007U 22076X   26170.06602595  .00011375  00000-0  72982-3 0  9999
2 53007  53.1597 358.9154 0001306  91.9094 268.2047 15.08930492218151
Epoch: 2026-06-19T01:35Z
TLE epoch observation values (Epoch: 2026-06-19T01:35:04.642Z)
Latitude
-0°
Longitude
67.84571°
Altitude
540.387 km
Speed
7.593 km/s
True Right ascension
23h 55m 39s
True Declination
0° 00' 00"
Sunlit
Object was in daylight at epoch
Visualization orbit readout
Latitude
Unknown
Longitude
Unknown
Altitude
Unknown
Speed
Unknown
Apparent Right ascension
Unknown
Apparent Declination
Unknown
Sunlit
N/A
Visualization observer readout
Local Sidereal Time
21:36:03
Azimuth
Unknown
Elevation
Unknown
Doppler factor
Unknown
Orbital elements
Apogee altitude
540.624 km
Perigee altitude
538.818 km
Semi-major axis
6,917.858 km
Eccentricity
0.00013
Inclination
53.1597°
RAAN
358.9154°
Arg. of periapsis
91.9094°
True anomaly
268.18974°
Mean anomaly
268.2047°
Eccentric anomaly
268.19722°
Mean motion
3.77212 °/min
Orbital period
95.44 mins
BSTAR
0.00072982
Loading maneuver chart data...
Computing Atmospheric mass density...
Loading historical data...
Loading historical data...
Loading historical data...
Loading historical data...
Loading historical data...
Loading historical data...
Loading historical data...

Documentation

Showing up to 5 results
|